JILIN-01 GAOFEN 3I (46461 NORAD) Tracking and Keplerian Element Data

This shows tracking and keplerian element data for the satellite.

Feedback or suggestion? Click here.




ElementValue
Catalog46461
NameJILIN-01 GAOFEN 3I
Epoch Orbit128
Epoch Day267.53792963
Epoch Year2020
RAAN323.0627
Inclination97.5415
Eccentricity0.0013078
Argument of Perigee263.5872
Mean Anonmoly202.2722
Mean Motion15.09502323
Decay Rate-1.91E-06
L11 46461U 20065H 20267.53792963 -.00000191 00000-0 -79453-5 0 9991
L22 46461 97.5415 323.0627 0013078 263.5872 202.2722 15.09502323 1287

Live tracking and technical data element details for JILIN-01 GAOFEN 3I (NORAD 46461). JILIN-01 GAOFEN 3I can be tracked NOW for your location showing map with azimuth and elevation plus other details from your city location.

Track the satellite on the map from your city or location and see movement details for azimuth, elevation, latitude, longitude, range, height, and movement on the map or in text.







IsCatalogInMostPopularTable: catalog: 46461, numindb: 3
Update: records affected: 1



GetName: 46461 JILIN-01 GAOFEN 3I

Hit Count: updated at: Thu, 24 Sep 2020 18:29:58 GMT